| time (UTC) | temp C | wind direction | speed KPH | gust KPH | rain 1hr cm | rain 24hr cm | rain mn cm | humidity % | barometer mb |
| 20260903041318 | 27 | 51 | 4.8 | 14.5 | 0.00 | 0.10 | 0.10 | 67 | 1012.3 |
| 20260903040751 | 27 | 108 | 4.8 | 12.9 | 0.00 | 0.10 | 0.10 | 66 | 1012.3 |
| 20260903040002 | 27 | 58 | 3.2 | 14.5 | 0.00 | 0.10 | 0.10 | 67 | 1012.3 |
| 20260903035458 | 27 | 116 | 3.2 | 14.5 | 0.00 | 0.10 | 0.10 | 66 | 1012.3 |
| 20260903034958 | 27 | 121 | 3.2 | 11.3 | 0.00 | 0.10 | 0.10 | 66 | 1012.3 |
| 20260903034428 | 27 | 58 | 3.2 | 12.9 | 0.00 | 0.10 | 0.10 | 66 | 1012.3 |
| 20260903033928 | 28 | 125 | 4.8 | 12.9 | 0.00 | 0.10 | 0.10 | 65 | 1012.3 |
| 20260903033617 | 28 | 128 | 4.8 | 11.3 | 0.00 | 0.10 | 0.10 | 65 | 1012.2 |
| 20260903032852 | 28 | 134 | 3.2 | 9.7 | 0.00 | 0.10 | 0.10 | 64 | 1012.1 |
| 20260903032827 | 28 | 127 | 1.6 | 9.7 | 0.00 | 0.10 | 0.10 | 64 | 1012.1 |
| 20260903031842 | 28 | 135 | 3.2 | 9.7 | 0.00 | 0.10 | 0.10 | 63 | 1012.1 |
| 20260903031338 | 28 | 115 | 3.2 | 11.3 | 0.00 | 0.10 | 0.10 | 62 | 1012.0 |
| 20260903030837 | 28 | 127 | 4.8 | 11.3 | 0.00 | 0.10 | 0.10 | 62 | 1012.1 |
| 20260903030337 | 28 | 118 | 4.8 | 12.9 | 0.00 | 0.10 | 0.10 | 62 | 1012.1 |
| 20260903025834 | 28 | 81 | 6.4 | 14.5 | 0.00 | 0.10 | 0.10 | 61 | 1012.1 |
| 20260903025805 | 28 | 129 | 6.4 | 14.5 | 0.00 | 0.10 | 0.10 | 61 | 1012.1 |
| 20260903024821 | 28 | 89 | 6.4 | 12.9 | 0.00 | 0.10 | 0.10 | 61 | 1012.1 |
| 20260903024309 | 29 | 193 | 6.4 | 22.5 | 0.00 | 0.10 | 0.10 | 60 | 1012.0 |
| 20260903023806 | 29 | 164 | 8.0 | 22.5 | 0.00 | 0.10 | 0.10 | 59 | 1012.0 |
| 20260903023309 | 29 | 115 | 9.7 | 22.5 | 0.00 | 0.10 | 0.10 | 59 | 1011.9 |
| 20260903023003 | 29 | 128 | 8.0 | 17.7 | 0.00 | 0.10 | 0.10 | 59 | 1011.7 |
| 20260903022228 | 29 | 131 | 8.0 | 17.7 | 0.00 | 0.10 | 0.10 | 58 | 1011.9 |
| 20260903021730 | 29 | 131 | 6.4 | 17.7 | 0.00 | 0.10 | 0.10 | 58 | 1011.7 |
| 20260903021202 | 30 | 85 | 6.4 | 14.5 | 0.00 | 0.10 | 0.10 | 58 | 1011.5 |
| 20260903020701 | 30 | 127 | 8.0 | 20.9 | 0.00 | 0.10 | 0.10 | 57 | 1011.5 |
| 20260903020351 | 30 | 156 | 9.7 | 22.5 | 0.00 | 0.10 | 0.10 | 57 | 1011.4 |
| 20260903015609 | 30 | 120 | 9.7 | 22.5 | 0.00 | 0.10 | 0.10 | 56 | 1011.3 |
| 20260903015040 | 30 | 122 | 9.7 | 24.1 | 0.00 | 0.10 | 0.10 | 55 | 1011.2 |
| 20260903014512 | 31 | 135 | 8.0 | 24.1 | 0.00 | 0.10 | 0.10 | 54 | 1011.1 |
| 20260903014011 | 31 | 121 | 8.0 | 14.5 | 0.00 | 0.10 | 0.10 | 54 | 1011.0 |
| 20260903013443 | 31 | 120 | 6.4 | 14.5 | 0.00 | 0.10 | 0.10 | 53 | 1010.9 |
| 20260903012942 | 31 | 139 | 6.4 | 14.5 | 0.00 | 0.10 | 0.10 | 53 | 1010.8 |
| 20260903012417 | 31 | 91 | 3.2 | 14.5 | 0.00 | 0.10 | 0.10 | 52 | 1010.7 |
| 20260903011844 | 31 | 120 | 1.6 | 12.9 | 0.00 | 0.10 | 0.10 | 51 | 1010.6 |
| 20260903011342 | 31 | 115 | 1.6 | 12.9 | 0.00 | 0.10 | 0.10 | 51 | 1010.5 |
| 20260903010841 | 31 | 115 | 1.6 | 9.7 | 0.00 | 0.10 | 0.10 | 51 | 1010.5 |
| 20260903010328 | 31 | 101 | 1.6 | 9.7 | 0.00 | 0.10 | 0.10 | 50 | 1010.5 |
| 20260903005831 | 31 | 121 | 3.2 | 9.7 | 0.00 | 0.10 | 0.10 | 50 | 1010.4 |
| 20260903005302 | 31 | 113 | 3.2 | 14.5 | 0.00 | 0.10 | 0.10 | 50 | 1010.4 |
| 20260903004735 | 31 | 120 | 3.2 | 14.5 | 0.00 | 0.10 | 0.10 | 49 | 1010.4 |
| 20260903004430 | 31 | 130 | 3.2 | 12.9 | 0.00 | 0.10 | 0.10 | 50 | 1010.4 |
| 20260903003711 | 31 | 110 | 1.6 | 9.7 | 0.00 | 0.10 | 0.10 | 51 | 1010.4 |
| 20260903003136 | 31 | 249 | 1.6 | 9.7 | 0.00 | 0.10 | 0.10 | 52 | 1010.3 |
| 20260903002635 | 32 | 115 | 1.6 | 9.7 | 0.00 | 0.10 | 0.10 | 51 | 1010.3 |
| 20260903002106 | 32 | 125 | 1.6 | 9.7 | 0.00 | 0.10 | 0.10 | 51 | 1010.3 |
| 20260903001732 | 32 | 122 | 1.6 | 6.4 | 0.00 | 0.10 | 0.10 | 53 | 1010.2 |
| 20260903001616 | 32 | 83 | 1.6 | 9.7 | 0.00 | 0.10 | 0.10 | 52 | 1010.2 |
| 20260903000753 | 32 | 123 | 1.6 | 6.4 | 0.00 | 0.10 | 0.10 | 54 | 1010.2 |
| 20260903000003 | 31 | 130 | 1.6 | 11.3 | 0.00 | 0.10 | 0.10 | 56 | 1010.2 |
| 20260902235500 | 31 | 130 | 1.6 | 11.3 | 0.00 | 0.10 | 0.10 | 57 | 1010.2 |
| 20260902234957 | 31 | 95 | 0.0 | 11.3 | 0.00 | 0.10 | 0.10 | 58 | 1010.2 |
| 20260902234647 | 31 | 129 | 0.0 | 1.6 | 0.00 | 0.10 | 0.10 | 63 | 1010.1 |
| 20260902233909 | 31 | 219 | 0.0 | 1.6 | 0.00 | 0.10 | 0.10 | 63 | 1010.1 |
| 20260902233336 | 31 | 219 | 0.0 | 0.0 | 0.10 | 0.10 | 0.10 | 65 | 1010.2 |
| 20260902233104 | 31 | 214 | 0.0 | 0.0 | 0.10 | 0.10 | 0.10 | 66 | 1010.1 |
| 20260902232326 | 30 | 214 | 0.0 | 0.0 | 0.10 | 0.10 | 0.10 | 67 | 1010.1 |
| 20260902231825 | 30 | 214 | 0.0 | 0.0 | 0.10 | 0.10 | 0.10 | 66 | 1010.2 |
| 20260902231256 | 30 | 214 | 0.0 | 1.6 | 0.10 | 0.10 | 0.10 | 67 | 1010.2 |
| 20260902230753 | 30 | 214 | 0.0 | 1.6 | 0.10 | 0.10 | 0.10 | 66 | 1010.1 |
| 20260902230510 | 30 | 214 | 0.0 | 9.7 | 0.10 | 0.10 | 0.10 | 66 | 1010.2 |
| 20260902225744 | 30 | 214 | 1.6 | 9.7 | 0.10 | 0.10 | 0.10 | 64 | 1010.2 |
| 20260902225217 | 30 | 215 | 3.2 | 14.5 | 0.10 | 0.10 | 0.10 | 65 | 1010.2 |
| 20260902224715 | 30 | 235 | 8.0 | 14.5 | 0.10 | 0.10 | 0.10 | 62 | 1010.1 |
| 20260902224209 | 30 | 214 | 11.3 | 20.9 | 0.10 | 0.10 | 0.10 | 61 | 1010.1 |
| 20260902223707 | 30 | 238 | 12.9 | 27.4 | 0.08 | 0.08 | 0.10 | 57 | 1010.2 |
| 20260902223140 | 33 | 121 | 9.7 | 25.7 | 0.00 | 0.00 | 0.00 | 51 | 1010.3 |
| 20260902222615 | 37 | 85 | 4.8 | 22.5 | 0.00 | 0.00 | 0.00 | 36 | 1010.0 |
| 20260902222049 | 38 | 140 | 1.6 | 9.7 | 0.00 | 0.00 | 0.00 | 34 | 1009.7 |
| 20260902221748 | 37 | 64 | 1.6 | 14.5 | 0.00 | 0.00 | 0.00 | 34 | 1009.7 |
| 20260902220954 | 38 | 293 | 1.6 | 14.5 | 0.00 | 0.00 | 0.00 | 34 | 1009.7 |
| 20260902220454 | 38 | 35 | 1.6 | 14.5 | 0.00 | 0.00 | 0.00 | 35 | 1009.7 |
| 20260902215926 | 37 | 352 | 1.6 | 14.5 | 0.00 | 0.00 | 0.00 | 33 | 1009.8 |
| 20260902215843 | 38 | 68 | 1.6 | 9.7 | 0.00 | 0.00 | 0.00 | 33 | 1009.8 |
| 20260902214836 | 38 | 167 | 1.6 | 9.7 | 0.00 | 0.00 | 0.00 | 32 | 1009.9 |
| 20260902214334 | 38 | 97 | 1.6 | 9.7 | 0.00 | 0.00 | 0.00 | 33 | 1010.0 |
| 20260902213809 | 38 | 121 | 1.6 | 9.7 | 0.00 | 0.00 | 0.00 | 32 | 1010.0 |
| 20260902213304 | 38 | 19 | 1.6 | 11.3 | 0.00 | 0.00 | 0.00 | 33 | 1010.1 |
| 20260902212802 | 38 | 46 | 3.2 | 14.5 | 0.00 | 0.00 | 0.00 | 32 | 1010.0 |
| 20260902212251 | 38 | 99 | 4.8 | 14.5 | 0.00 | 0.00 | 0.00 | 33 | 1010.2 |
| 20260902211754 | 38 | 119 | 4.8 | 17.7 | 0.00 | 0.00 | 0.00 | 34 | 1010.2 |
| 20260902211514 | 37 | 340 | 3.2 | 17.7 | 0.00 | 0.00 | 0.00 | 34 | 1010.2 |
| 20260902211014 | 37 | 6 | 1.6 | 12.9 | 0.00 | 0.00 | 0.00 | 35 | 1010.2 |
| 20260902210224 | 38 | 127 | 3.2 | 12.9 | 0.00 | 0.00 | 0.00 | 33 | 1010.4 |
| 20260902205659 | 38 | 68 | 3.2 | 14.5 | 0.00 | 0.00 | 0.00 | 33 | 1010.4 |
| 20260902205130 | 38 | 118 | 1.6 | 14.5 | 0.00 | 0.00 | 0.00 | 33 | 1010.4 |
| 20260902204617 | 38 | 121 | 1.6 | 9.7 | 0.00 | 0.00 | 0.00 | 34 | 1010.5 |
| 20260902204050 | 38 | 258 | 1.6 | 14.5 | 0.00 | 0.00 | 0.00 | 33 | 1010.6 |
| 20260902203549 | 38 | 328 | 1.6 | 14.5 | 0.00 | 0.00 | 0.00 | 33 | 1010.6 |
| 20260902203050 | 37 | 64 | 3.2 | 11.3 | 0.00 | 0.00 | 0.00 | 33 | 1010.8 |
| 20260902202546 | 37 | 8 | 3.2 | 11.3 | 0.00 | 0.00 | 0.00 | 34 | 1010.9 |
| 20260902202528 | 38 | 335 | 3.2 | 9.7 | 0.00 | 0.00 | 0.00 | 32 | 1010.9 |
| 20260902201519 | 38 | 153 | 3.2 | 12.9 | 0.00 | 0.00 | 0.00 | 36 | 1011.0 |
| 20260902201012 | 37 | 15 | 4.8 | 12.9 | 0.00 | 0.00 | 0.00 | 35 | 1011.0 |
| 20260902200452 | 37 | 94 | 3.2 | 12.9 | 0.00 | 0.00 | 0.00 | 35 | 1011.2 |
| 20260902195951 | 37 | 93 | 1.6 | 11.3 | 0.00 | 0.00 | 0.00 | 34 | 1011.4 |
| 20260902195451 | 37 | 63 | 1.6 | 6.4 | 0.00 | 0.00 | 0.00 | 33 | 1011.4 |
| 20260902195433 | 37 | 55 | 1.6 | 9.7 | 0.00 | 0.00 | 0.00 | 35 | 1011.6 |
| 20260902194452 | 37 | 49 | 1.6 | 9.7 | 0.00 | 0.00 | 0.00 | 35 | 1011.6 |
| 20260902193949 | 36 | 138 | 3.2 | 9.7 | 0.00 | 0.00 | 0.00 | 35 | 1011.7 |
| 20260902193444 | 36 | 358 | 3.2 | 12.9 | 0.00 | 0.00 | 0.00 | 35 | 1011.9 |
| 20260902192935 | 37 | 343 | 1.6 | 12.9 | 0.00 | 0.00 | 0.00 | 35 | 1012.0 |
| 20260902192435 | 37 | 75 | 1.6 | 11.3 | 0.00 | 0.00 | 0.00 | 34 | 1012.0 |
| 20260902192200 | 37 | 66 | 1.6 | 9.7 | 0.00 | 0.00 | 0.00 | 36 | 1012.1 |
| 20260902191433 | 37 | 129 | 1.6 | 9.7 | 0.00 | 0.00 | 0.00 | 36 | 1012.1 |
| 20260902190935 | 36 | 142 | 1.6 | 8.0 | 0.00 | 0.00 | 0.00 | 38 | 1012.3 |
| 20260902190650 | 37 | 11 | 1.6 | 9.7 | 0.00 | 0.00 | 0.00 | 36 | 1012.3 |
| 20260902185934 | 37 | 134 | 3.2 | 11.3 | 0.00 | 0.00 | 0.00 | 37 | 1012.3 |
| 20260902185419 | 37 | 105 | 1.6 | 11.3 | 0.00 | 0.00 | 0.00 | 37 | 1012.5 |
| 20260902184857 | 36 | 81 | 1.6 | 11.3 | 0.00 | 0.00 | 0.00 | 40 | 1012.5 |
| 20260902184358 | 36 | 42 | 1.6 | 8.0 | 0.00 | 0.00 | 0.00 | 38 | 1012.7 |
| 20260902183844 | 35 | 70 | 3.2 | 16.1 | 0.00 | 0.00 | 0.00 | 40 | 1012.8 |
| 20260902183606 | 35 | 354 | 3.2 | 16.1 | 0.00 | 0.00 | 0.00 | 40 | 1012.8 |
| 20260902182841 | 35 | 82 | 3.2 | 12.9 | 0.00 | 0.00 | 0.00 | 39 | 1012.9 |
| 20260902182325 | 35 | 58 | 3.2 | 16.1 | 0.00 | 0.00 | 0.00 | 40 | 1013.0 |
| 20260902182315 | 36 | 356 | 3.2 | 16.1 | 0.00 | 0.00 | 0.00 | 36 | 1013.2 |
| 20260902181259 | 36 | 354 | 3.2 | 12.9 | 0.00 | 0.00 | 0.00 | 42 | 1013.2 |
| 20260902180951 | 35 | 70 | 1.6 | 8.0 | 0.00 | 0.00 | 0.00 | 43 | 1013.4 |
| 20260902180216 | 35 | 0 | 1.6 | 9.7 | 0.00 | 0.00 | 0.00 | 44 | 1013.5 |
| 20260902175714 | 35 | 82 | 3.2 | 12.9 | 0.00 | 0.00 | 0.00 | 43 | 1013.6 |
| 20260902175152 | 34 | 13 | 6.4 | 12.9 | 0.00 | 0.00 | 0.00 | 43 | 1013.8 |
| 20260902174632 | 34 | 354 | 3.2 | 14.5 | 0.00 | 0.00 | 0.00 | 43 | 1014.0 |
| 20260902174108 | 35 | 83 | 3.2 | 14.5 | 0.00 | 0.00 | 0.00 | 42 | 1013.9 |
| 20260902173603 | 35 | 39 | 1.6 | 9.7 | 0.00 | 0.00 | 0.00 | 46 | 1014.0 |
| 20260902173102 | 35 | 43 | 1.6 | 9.7 | 0.00 | 0.00 | 0.00 | 44 | 1014.0 |
| 20260902172536 | 35 | 125 | 1.6 | 9.7 | 0.00 | 0.00 | 0.00 | 45 | 1014.2 |
| 20260902172254 | 35 | 82 | 1.6 | 9.7 | 0.00 | 0.00 | 0.00 | 44 | 1014.3 |
| 20260902171529 | 35 | 124 | 3.2 | 9.7 | 0.00 | 0.00 | 0.00 | 45 | 1014.3 |
| 20260902171029 | 34 | 167 | 3.2 | 12.9 | 0.00 | 0.00 | 0.00 | 46 | 1014.5 |
| 20260902170501 | 34 | 97 | 1.6 | 12.9 | 0.00 | 0.00 | 0.00 | 48 | 1014.6 |
| 20260902165958 | 33 | 98 | 0.0 | 6.4 | 0.00 | 0.00 | 0.00 | 49 | 1014.6 |
| 20260902165427 | 33 | 53 | 1.6 | 11.3 | 0.00 | 0.00 | 0.00 | 51 | 1014.7 |
| 20260902164916 | 33 | 148 | 3.2 | 11.3 | 0.00 | 0.00 | 0.00 | 52 | 1014.8 |
| 20260902164413 | 33 | 342 | 3.2 | 11.3 | 0.00 | 0.00 | 0.00 | 49 | 1014.9 |
| 20260902163909 | 33 | 141 | 1.6 | 8.0 | 0.00 | 0.00 | 0.00 | 48 | 1015.0 |
| 20260902163409 | 33 | 255 | 1.6 | 11.3 | 0.00 | 0.00 | 0.00 | 50 | 1015.0 |
| 20260902162839 | 33 | 61 | 1.6 | 11.3 | 0.00 | 0.00 | 0.00 | 49 | 1014.9 |
| 20260902162600 | 33 | 124 | 0.0 | 8.0 | 0.00 | 0.00 | 0.00 | 51 | 1014.9 |
| 20260902161833 | 33 | 59 | 0.0 | 6.4 | 0.00 | 0.00 | 0.00 | 52 | 1014.9 |
| 20260902161812 | 33 | 122 | 0.0 | 8.0 | 0.00 | 0.00 | 0.00 | 52 | 1015.0 |
| 20260902160804 | 33 | 27 | 0.0 | 8.0 | 0.00 | 0.00 | 0.00 | 52 | 1015.0 |
| 20260902160302 | 32 | 254 | 1.6 | 6.4 | 0.00 | 0.00 | 0.00 | 55 | 1015.0 |
| 20260902155758 | 32 | 243 | 1.6 | 8.0 | 0.00 | 0.00 | 0.00 | 55 | 1015.0 |
| 20260902155256 | 32 | 131 | 1.6 | 11.3 | 0.00 | 0.00 | 0.00 | 54 | 1015.1 |
| 20260902154754 | 32 | 112 | 1.6 | 11.3 | 0.00 | 0.00 | 0.00 | 55 | 1015.0 |
| 20260902154229 | 32 | 70 | 0.0 | 4.8 | 0.00 | 0.00 | 0.00 | 56 | 1015.0 |
| 20260902153702 | 31 | 206 | 0.0 | 4.8 | 0.00 | 0.00 | 0.00 | 57 | 1015.1 |
| 20260902153354 | 31 | 256 | 0.0 | 6.4 | 0.00 | 0.00 | 0.00 | 59 | 1015.0 |
| 20260902152630 | 31 | 2 | 1.6 | 6.4 | 0.00 | 0.00 | 0.00 | 59 | 1015.0 |
| 20260902152105 | 31 | 133 | 1.6 | 9.7 | 0.00 | 0.00 | 0.00 | 59 | 1015.0 |
| 20260902151537 | 31 | 136 | 1.6 | 9.7 | 0.00 | 0.00 | 0.00 | 59 | 1015.0 |
| 20260902151039 | 31 | 118 | 1.6 | 9.7 | 0.00 | 0.00 | 0.00 | 61 | 1015.0 |
| 20260902150513 | 30 | 108 | 1.6 | 9.7 | 0.00 | 0.00 | 0.00 | 62 | 1015.0 |
| 20260902150009 | 30 | 148 | 3.2 | 9.7 | 0.00 | 0.00 | 0.00 | 61 | 1015.0 |
| 20260902145507 | 30 | 135 | 3.2 | 11.3 | 0.00 | 0.00 | 0.00 | 61 | 1014.9 |
| 20260902144939 | 30 | 130 | 3.2 | 11.3 | 0.00 | 0.00 | 0.00 | 61 | 1014.9 |
| 20260902144438 | 30 | 132 | 1.6 | 9.7 | 0.00 | 0.00 | 0.00 | 62 | 1014.8 |
| 20260902143913 | 30 | 120 | 1.6 | 6.4 | 0.00 | 0.00 | 0.00 | 62 | 1014.8 |
| 20260902143343 | 30 | 117 | 1.6 | 4.8 | 0.00 | 0.00 | 0.00 | 65 | 1014.8 |
| 20260902142822 | 30 | 221 | 0.0 | 6.4 | 0.00 | 0.00 | 0.00 | 64 | 1014.8 |
| 20260902142253 | 29 | 121 | 1.6 | 9.7 | 0.00 | 0.00 | 0.00 | 66 | 1014.8 |
| 20260902141751 | 29 | 124 | 1.6 | 9.7 | 0.00 | 0.00 | 0.00 | 65 | 1014.8 |
| 20260902141223 | 29 | 109 | 1.6 | 8.0 | 0.00 | 0.00 | 0.00 | 67 | 1014.8 |
| 20260902140947 | 28 | 111 | 1.6 | 8.0 | 0.00 | 0.00 | 0.00 | 67 | 1014.8 |
| 20260902140153 | 28 | 127 | 1.6 | 8.0 | 0.00 | 0.00 | 0.00 | 68 | 1014.7 |
| 20260902135651 | 28 | 155 | 1.6 | 6.4 | 0.00 | 0.00 | 0.00 | 68 | 1014.7 |
| 20260902135147 | 28 | 119 | 1.6 | 11.3 | 0.00 | 0.00 | 0.00 | 69 | 1014.7 |
| 20260902134645 | 27 | 122 | 3.2 | 11.3 | 0.00 | 0.00 | 0.00 | 69 | 1014.7 |
| 20260902134131 | 27 | 136 | 1.6 | 9.7 | 0.00 | 0.00 | 0.00 | 70 | 1014.7 |
| 20260902134035 | 27 | 131 | 3.2 | 9.7 | 0.00 | 0.00 | 0.00 | 70 | 1014.6 |
| 20260902133652 | 27 | 123 | 3.2 | 9.7 | 0.00 | 0.00 | 0.00 | 71 | 1014.6 |
| 20260902132531 | 27 | 131 | 1.6 | 9.7 | 0.00 | 0.00 | 0.00 | 70 | 1014.6 |
| 20260902132229 | 27 | 125 | 1.6 | 9.7 | 0.00 | 0.00 | 0.00 | 70 | 1014.6 |
| 20260902131442 | 26 | 128 | 3.2 | 9.7 | 0.00 | 0.00 | 0.00 | 71 | 1014.6 |
| 20260902130912 | 26 | 122 | 3.2 | 9.7 | 0.00 | 0.00 | 0.00 | 71 | 1014.6 |
| 20260902130345 | 26 | 126 | 3.2 | 11.3 | 0.00 | 0.00 | 0.00 | 72 | 1014.6 |
| 20260902125817 | 26 | 134 | 1.6 | 11.3 | 0.00 | 0.00 | 0.00 | 73 | 1014.6 |
| 20260902125315 | 26 | 131 | 1.6 | 4.8 | 0.00 | 0.00 | 0.00 | 74 | 1014.5 |
| 20260902124745 | 26 | 118 | 1.6 | 4.8 | 0.00 | 0.00 | 0.00 | 74 | 1014.4 |
| 20260902124220 | 26 | 117 | 1.6 | 6.4 | 0.00 | 0.00 | 0.00 | 75 | 1014.4 |
| 20260902123720 | 25 | 130 | 0.0 | 4.8 | 0.00 | 0.00 | 0.00 | 76 | 1014.3 |
| 20260902123159 | 25 | 131 | 0.0 | 4.8 | 0.00 | 0.00 | 0.00 | 76 | 1014.3 |
| 20260902122644 | 25 | 123 | 0.0 | 3.2 | 0.00 | 0.00 | 0.00 | 77 | 1014.3 |
| 20260902122139 | 24 | 128 | 0.0 | 1.6 | 0.00 | 0.00 | 0.00 | 78 | 1014.3 |
| 20260902121637 | 24 | 113 | 0.0 | 0.0 | 0.00 | 0.00 | 0.00 | 79 | 1014.3 |
| 20260902121133 | 24 | 202 | 0.0 | 0.0 | 0.00 | 0.00 | 0.00 | 80 | 1014.3 |
| 20260902120629 | 23 | 202 | 0.0 | 0.0 | 0.00 | 0.00 | 0.00 | 80 | 1014.3 |
| 20260902115539 | 24 | 202 | 0.0 | 0.0 | 0.00 | 0.00 | 0.00 | 79 | 1014.2 |
| 20260902115011 | 24 | 202 | 0.0 | 0.0 | 0.00 | 0.00 | 0.00 | 80 | 1014.2 |
| 20260902114509 | 24 | 202 | 0.0 | 0.0 | 0.00 | 0.00 | 0.00 | 79 | 1014.3 |
| 20260902114006 | 24 | 202 | 0.0 | 0.0 | 0.00 | 0.00 | 0.00 | 79 | 1014.3 |
| 20260902113504 | 24 | 201 | 0.0 | 0.0 | 0.00 | 0.00 | 0.00 | 79 | 1014.4 |
| 20260902112951 | 24 | 201 | 0.0 | 0.0 | 0.00 | 0.00 | 0.00 | 78 | 1014.3 |
| 20260902112454 | 24 | 201 | 0.0 | 0.0 | 0.00 | 0.00 | 0.00 | 79 | 1014.3 |
| 20260902111949 | 24 | 201 | 0.0 | 0.0 | 0.00 | 0.00 | 0.00 | 78 | 1014.3 |
| 20260902111445 | 24 | 202 | 0.0 | 0.0 | 0.00 | 0.00 | 0.00 | 78 | 1014.3 |
| 20260902110920 | 24 | 202 | 0.0 | 0.0 | 0.00 | 0.00 | 0.00 | 79 | 1014.2 |
| 20260902110421 | 24 | 201 | 0.0 | 0.0 | 0.00 | 0.00 | 0.00 | 78 | 1014.2 |
| 20260902105854 | 24 | 202 | 0.0 | 0.0 | 0.00 | 0.00 | 0.00 | 78 | 1014.2 |
| 20260902105347 | 24 | 201 | 0.0 | 0.0 | 0.00 | 0.00 | 0.00 | 76 | 1014.1 |
| 20260902104817 | 24 | 202 | 0.0 | 0.0 | 0.00 | 0.00 | 0.00 | 76 | 1014.2 |
| 20260902104313 | 24 | 202 | 0.0 | 0.0 | 0.00 | 0.00 | 0.00 | 76 | 1014.1 |
| 20260902103745 | 24 | 202 | 0.0 | 0.0 | 0.00 | 0.00 | 0.00 | 76 | 1014.1 |
| 20260902103219 | 25 | 202 | 0.0 | 0.0 | 0.00 | 0.00 | 0.00 | 75 | 1014.1 |
| 20260902102706 | 25 | 201 | 0.0 | 0.0 | 0.00 | 0.00 | 0.00 | 75 | 1014.1 |
| 20260902102210 | 25 | 202 | 0.0 | 0.0 | 0.00 | 0.00 | 0.00 | 74 | 1014.1 |
| 20260902101642 | 25 | 202 | 0.0 | 0.0 | 0.00 | 0.00 | 0.00 | 74 | 1014.2 |
| 20260902101137 | 25 | 201 | 0.0 | 0.0 | 0.00 | 0.00 | 0.00 | 74 | 1014.1 |
| 20260902100635 | 25 | 202 | 0.0 | 0.0 | 0.00 | 0.00 | 0.00 | 73 | 1014.2 |
| 20260902100133 | 25 | 202 | 0.0 | 0.0 | 0.00 | 0.00 | 0.00 | 72 | 1014.1 |
| 20260902095609 | 25 | 201 | 0.0 | 0.0 | 0.00 | 0.00 | 0.00 | 71 | 1014.2 |
| 20260902095106 | 26 | 201 | 0.0 | 0.0 | 0.00 | 0.00 | 0.00 | 71 | 1014.2 |
| 20260902094556 | 26 | 202 | 0.0 | 0.0 | 0.00 | 0.00 | 0.00 | 71 | 1014.1 |
| 20260902094320 | 26 | 201 | 0.0 | 0.0 | 0.00 | 0.00 | 0.00 | 71 | 1014.1 |
| 20260902093530 | 26 | 202 | 0.0 | 0.0 | 0.00 | 0.00 | 0.00 | 70 | 1014.0 |
| 20260902093003 | 26 | 201 | 0.0 | 0.0 | 0.00 | 0.00 | 0.00 | 69 | 1014.0 |
| 20260902092503 | 26 | 201 | 0.0 | 0.0 | 0.00 | 0.00 | 0.00 | 68 | 1014.0 |
| 20260902091941 | 26 | 201 | 0.0 | 0.0 | 0.00 | 0.00 | 0.00 | 67 | 1014.0 |
| 20260902091441 | 26 | 201 | 0.0 | 0.0 | 0.00 | 0.00 | 0.00 | 68 | 1013.9 |
| 20260902090937 | 26 | 201 | 0.0 | 0.0 | 0.00 | 0.00 | 0.00 | 67 | 1013.9 |
| 20260902090440 | 27 | 248 | 0.0 | 1.6 | 0.00 | 0.00 | 0.00 | 67 | 1013.9 |
| 20260902085914 | 27 | 248 | 0.0 | 1.6 | 0.00 | 0.00 | 0.00 | 67 | 1013.9 |
| 20260902085348 | 27 | 224 | 0.0 | 1.6 | 0.00 | 0.00 | 0.00 | 67 | 1013.8 |
| 20260902084821 | 27 | 223 | 0.0 | 0.0 | 0.00 | 0.00 | 0.00 | 67 | 1013.8 |
| 20260902084321 | 27 | 224 | 0.0 | 1.6 | 0.00 | 0.00 | 0.00 | 67 | 1013.8 |
| 20260902083824 | 27 | 224 | 0.0 | 1.6 | 0.00 | 0.00 | 0.00 | 67 | 1013.8 |
| 20260902083302 | 27 | 139 | 0.0 | 0.0 | 0.00 | 0.00 | 0.00 | 66 | 1013.8 |
| 20260902082803 | 27 | 139 | 0.0 | 0.0 | 0.00 | 0.00 | 0.00 | 66 | 1013.8 |
| 20260902082236 | 27 | 154 | 0.0 | 1.6 | 0.00 | 0.00 | 0.00 | 66 | 1013.7 |
| 20260902081735 | 27 | 154 | 0.0 | 1.6 | 0.00 | 0.00 | 0.00 | 66 | 1013.8 |
| 20260902081211 | 27 | 154 | 0.0 | 0.0 | 0.00 | 0.00 | 0.00 | 66 | 1013.8 |
| 20260902080650 | 27 | 188 | 0.0 | 1.6 | 0.00 | 0.00 | 0.00 | 65 | 1013.8 |
| 20260902080150 | 27 | 264 | 0.0 | 1.6 | 0.00 | 0.00 | 0.00 | 65 | 1013.8 |
| 20260902075648 | 27 | 153 | 0.0 | 3.2 | 0.00 | 0.00 | 0.00 | 65 | 1013.8 |
| 20260902075143 | 28 | 221 | 0.0 | 4.8 | 0.00 | 0.00 | 0.00 | 65 | 1013.9 |
| 20260902074857 | 28 | 134 | 0.0 | 4.8 | 0.00 | 0.00 | 0.00 | 65 | 1013.8 |
| 20260902074125 | 28 | 129 | 0.0 | 3.2 | 0.00 | 0.00 | 0.00 | 65 | 1013.8 |
| 20260902073621 | 28 | 129 | 0.0 | 4.8 | 0.00 | 0.00 | 0.00 | 64 | 1013.8 |
| 20260902073124 | 28 | 120 | 0.0 | 6.4 | 0.00 | 0.00 | 0.00 | 64 | 1013.8 |
| 20260902072604 | 28 | 129 | 0.0 | 4.8 | 0.00 | 0.00 | 0.00 | 64 | 1013.8 |
| 20260902072100 | 28 | 114 | 1.6 | 6.4 | 0.00 | 0.00 | 0.00 | 64 | 1013.9 |
| 20260902071601 | 28 | 162 | 1.6 | 6.4 | 0.00 | 0.00 | 0.00 | 63 | 1013.9 |
| 20260902071058 | 28 | 132 | 1.6 | 8.0 | 0.00 | 0.00 | 0.00 | 63 | 1013.9 |
| 20260902070559 | 28 | 123 | 1.6 | 8.0 | 0.00 | 0.00 | 0.00 | 63 | 1013.9 |
| 20260902070100 | 28 | 131 | 1.6 | 8.0 | 0.00 | 0.00 | 0.00 | 63 | 1013.9 |
| 20260902065537 | 28 | 158 | 1.6 | 8.0 | 0.00 | 0.00 | 0.00 | 62 | 1014.0 |
| 20260902065037 | 28 | 125 | 1.6 | 8.0 | 0.00 | 0.00 | 0.00 | 62 | 1014.0 |
| 20260902064538 | 28 | 248 | 3.2 | 6.4 | 0.00 | 0.00 | 0.00 | 62 | 1014.0 |
| 20260902064020 | 28 | 191 | 3.2 | 9.7 | 0.00 | 0.00 | 0.00 | 62 | 1014.0 |
| 20260902063715 | 28 | 110 | 3.2 | 9.7 | 0.00 | 0.00 | 0.00 | 62 | 1014.0 |
| 20260902062921 | 28 | 207 | 1.6 | 9.7 | 0.00 | 0.00 | 0.00 | 62 | 1014.0 |
| 20260902062414 | 28 | 216 | 3.2 | 9.7 | 0.00 | 0.00 | 0.00 | 61 | 1013.9 |
| 20260902061912 | 28 | 144 | 3.2 | 9.7 | 0.00 | 0.00 | 0.00 | 61 | 1013.9 |
| 20260902061347 | 29 | 103 | 3.2 | 9.7 | 0.00 | 0.00 | 0.00 | 61 | 1013.9 |
| 20260902060821 | 29 | 138 | 1.6 | 8.0 | 0.00 | 0.00 | 0.00 | 61 | 1013.9 |
| 20260902060519 | 29 | 141 | 1.6 | 6.4 | 0.00 | 0.00 | 0.00 | 61 | 1013.9 |
| 20260902055729 | 29 | 245 | 3.2 | 9.7 | 0.00 | 0.00 | 0.00 | 61 | 1013.9 |
| 20260902055229 | 29 | 113 | 3.2 | 8.0 | 0.00 | 0.00 | 0.00 | 61 | 1013.9 |
| 20260902054949 | 29 | 114 | 3.2 | 8.0 | 0.00 | 0.00 | 0.00 | 60 | 1013.9 |
| 20260902054223 | 29 | 233 | 3.2 | 8.0 | 0.00 | 0.00 | 0.00 | 60 | 1013.9 |
| 20260902053715 | 29 | 150 | 3.2 | 8.0 | 0.00 | 0.00 | 0.00 | 60 | 1013.9 |
| 20260902053212 | 29 | 124 | 3.2 | 8.0 | 0.00 | 0.00 | 0.00 | 61 | 1013.9 |
| 20260902052709 | 29 | 238 | 3.2 | 8.0 | 0.00 | 0.00 | 0.00 | 60 | 1013.9 |
| 20260902052407 | 30 | 124 | 3.2 | 8.0 | 0.00 | 0.00 | 0.00 | 60 | 1013.8 |
| 20260902051617 | 30 | 139 | 3.2 | 11.3 | 0.00 | 0.00 | 0.00 | 60 | 1013.8 |
| 20260902051313 | 30 | 105 | 3.2 | 11.3 | 0.00 | 0.00 | 0.00 | 59 | 1013.8 |
| 20260902050525 | 30 | 203 | 4.8 | 12.9 | 0.00 | 0.00 | 0.00 | 58 | 1013.8 |
| 20260902045959 | 30 | 129 | 4.8 | 12.9 | 0.00 | 0.00 | 0.00 | 58 | 1013.8 |
| 20260902045431 | 30 | 117 | 4.8 | 12.9 | 0.00 | 0.00 | 0.00 | 57 | 1013.9 |
| 20260902044927 | 30 | 141 | 4.8 | 12.9 | 0.00 | 0.00 | 0.00 | 57 | 1013.8 |
| 20260902044425 | 30 | 156 | 4.8 | 12.9 | 0.00 | 0.00 | 0.00 | 57 | 1013.8 |
| 20260902043920 | 30 | 117 | 4.8 | 12.9 | 0.00 | 0.00 | 0.00 | 56 | 1013.7 |
| 20260902043422 | 30 | 234 | 4.8 | 11.3 | 0.00 | 0.00 | 0.00 | 56 | 1013.7 |
| 20260902042916 | 30 | 113 | 4.8 | 11.3 | 0.00 | 0.00 | 0.00 | 56 | 1013.7 |
| 20260902042413 | 30 | 208 | 4.8 | 11.3 | 0.00 | 0.00 | 0.00 | 55 | 1013.7 |
| 20260902041847 | 31 | 219 | 6.4 | 12.9 | 0.00 | 0.00 | 0.00 | 55 | 1013.6 |
| 20260902041546 | 31 | 137 | 8.0 | 16.1 | 0.00 | 0.00 | 0.00 | 54 | 1013.6 |